This demonstration page uses our WeatherBlox Daily Observations layout. Learn more.

Left ArrowRight Arrow

38.83388, -104.82136

Hourly Observations for January 5, 2015

Temp ( °F °C ) Dew Point ( °F °C ) Humidity (%) Winds ( mph kmh ) Pressure ( in mb ) Visibility ( mi km ) Precip ( " mm )
12:56 am 00:56 Clear 31 -0.7 15 -9.2 53 53 NW 7 11 30.32 1027 10 16 N/A
1:56 am 01:56 Clear 35 1.4 15 -9.5 45 45 VRB 5 7 30.29 1026 10 16 N/A
2:56 am 02:56 Clear 35 1.5 15 -9.6 44 44 WSW 3 6 30.28 1025 10 16 N/A
3:56 am 03:56 Clear 35 1.8 16 -8.8 46 46 VRB 5 7 30.27 1025 10 16 N/A
4:56 am 04:56 Clear 38 3.2 13 -10.4 36 36 VRB 3 6 30.20 1023 10 16 N/A
5:56 am 05:56 Mostly Cloudy 35 1.6 17 -8.5 47 47 NW 3 6 30.14 1021 10 16 N/A
6:56 am 06:56 Mostly Cloudy 36 2.1 16 -9.1 44 44 VRB 3 6 30.15 1021 10 16 N/A
7:56 am 07:56 Mostly Cloudy 33 0.7 17 -8.3 51 51 S 13 20 30.09 1019 10 16 N/A
8:07 am 08:07 Mostly Cloudy with Light Rain 34 1 18 -8 51 51 VRB 2 4 30.09 1019 10 16 N/A
8:22 am 08:22 Mostly Cloudy 34 1 18 -8 51 51 E 6 9 30.09 1019 10 16 N/A
8:56 am 08:56 Mostly Cloudy 37 2.9 17 -8.1 45 45 S 8 13 30.11 1020 10 16 N/A
9:56 am 09:56 Mostly Cloudy 37 2.6 16 -8.7 43 43 VRB 2 4 30.09 1019 10 16 N/A
10:56 am 10:56 Mostly Cloudy 42 5.5 20 -6.7 41 41 ENE 5 7 30.01 1016 10 16 N/A
11:56 am 11:56 Mostly Cloudy 51 10.8 21 -6.1 30 30 VRB 7 11 29.98 1015 10 16 N/A
12:19 pm 12:19 Mostly Cloudy 52 11 21 -6 30 30 S 15 24 29.77 1008 10 16 N/A
12:56 pm 12:56 Mostly Sunny 51 10.3 22 -5.3 33 33 VRB 3 6 29.98 1015 10 16 N/A
1:56 pm 13:56 Sunny 54 12.4 25 -4.1 32 32 VRB 3 6 29.96 1014 10 16 N/A
2:56 pm 14:56 Sunny 52 11 26 -3.1 37 37 VRB 3 6 30.02 1017 10 16 N/A
3:56 pm 15:56 Sunny 56 13.1 22 -5.4 27 27 S 8 13 30.02 1017 10 16 N/A
4:56 pm 16:56 Mostly Clear 55 12.5 24 -4.5 31 31 WSW 5 7 30.02 1017 10 16 N/A
5:56 pm 17:56 Clear 53 11.8 25 -3.8 34 34 SW 7 11 30.08 1019 10 16 N/A
6:56 pm 18:56 Clear 50 10.2 26 -3.2 39 39 W 10 17 30.13 1020 10 16 N/A
7:02 pm 19:02 Clear 55 13 25 -4 31 31 WSW 12 19 29.91 1013 10 16 N/A
7:56 pm 19:56 Clear 49 9.6 26 -3.3 40 40 NE 5 7 30.17 1022 10 16 N/A
8:56 pm 20:56 Mostly Cloudy 52 10.9 27 -3 38 38 SW 6 9 30.16 1022 10 16 N/A
9:56 pm 21:56 Clear 52 10.9 26 -3.1 38 38 WNW 14 22 30.19 1022 10 16 N/A
10:56 pm 22:56 Clear 49 9.4 26 -3.1 42 42 S 12 19 30.21 1023 10 16 N/A
11:56 pm 23:56 Mostly Clear 47 8.1 29 -1.9 50 50 WSW 6 9 30.21 1023 10 16 N/A

Powered by AerisWeather